Time,TemperatureF,DewpointF,PressureIn,WindDirection,WindDirectionDegrees,WindSpeedMPH,WindSpeedGustMPH,Humidity,HourlyPrecipIn,Conditions,Clouds,dailyrainin,SoftwareType,DateUTC
2013-08-30 00:14:00,61.0,60.0,30.28,ENE,57,0.0,0.0,96,0.00,,,0.00,,2013-08-30 04:14:00,
2013-08-30 00:25:00,61.0,60.0,30.28,ENE,57,0.0,0.0,96,0.00,,,0.00,,2013-08-30 04:25:00,
2013-08-30 00:54:00,61.0,60.0,30.27,ENE,57,0.0,0.0,96,0.00,,,0.00,,2013-08-30 04:54:00,
2013-08-30 01:12:00,61.0,60.0,30.27,ENE,57,0.0,0.0,96,0.00,,,0.00,,2013-08-30 05:12:00,
2013-08-30 01:23:00,61.0,60.0,30.27,ENE,57,0.0,0.0,96,0.00,,,0.00,,2013-08-30 05:23:00,
2013-08-30 01:42:00,61.0,60.0,30.27,ENE,57,0.0,0.0,95,0.00,,,0.00,,2013-08-30 05:42:00,
2013-08-30 01:52:00,61.0,60.0,30.27,ENE,57,0.0,0.0,96,0.00,,,0.00,,2013-08-30 05:52:00,
2013-08-30 02:12:00,61.0,60.0,30.27,ENE,57,0.0,0.0,95,0.00,,,0.00,,2013-08-30 06:12:00,
2013-08-30 02:22:00,61.0,60.0,30.26,ENE,57,0.0,0.0,95,0.00,,,0.00,,2013-08-30 06:22:00,
2013-08-30 02:42:00,61.0,60.0,30.26,ENE,57,0.0,0.0,95,0.00,,,0.00,,2013-08-30 06:42:00,
2013-08-30 02:53:00,61.0,60.0,30.25,ENE,57,0.0,0.0,95,0.00,,,0.00,,2013-08-30 06:53:00,
2013-08-30 03:12:00,61.0,60.0,30.24,ENE,58,0.0,0.0,95,0.00,,,0.00,,2013-08-30 07:12:00,
2013-08-30 03:22:00,61.0,60.0,30.24,ENE,58,0.0,0.0,95,0.00,,,0.00,,2013-08-30 07:22:00,
2013-08-30 03:53:00,61.0,60.0,30.23,ENE,58,0.0,0.0,95,0.00,,,0.00,,2013-08-30 07:53:00,
2013-08-30 04:11:00,61.0,60.0,30.23,ENE,58,0.0,0.0,95,0.00,,,0.00,,2013-08-30 08:11:00,
2013-08-30 04:22:00,61.0,60.0,30.22,ENE,58,0.0,0.0,96,0.00,,,0.00,,2013-08-30 08:22:00,
2013-08-30 04:43:00,61.0,60.0,30.22,ENE,58,0.0,0.0,96,0.00,,,0.00,,2013-08-30 08:43:00,
2013-08-30 04:52:00,61.0,60.0,30.22,ENE,58,0.0,0.0,96,0.00,,,0.00,,2013-08-30 08:52:00,
2013-08-30 05:12:00,61.0,60.0,30.22,ENE,58,0.0,0.0,96,0.00,,,0.00,,2013-08-30 09:12:00,
2013-08-30 05:22:00,61.0,60.0,30.22,ENE,58,0.0,0.0,95,0.00,,,0.00,,2013-08-30 09:22:00,
2013-08-30 05:44:00,61.0,60.0,30.22,ENE,58,0.0,0.0,96,0.00,,,0.00,,2013-08-30 09:44:00,
2013-08-30 05:53:00,61.0,60.0,30.22,ENE,58,0.0,0.0,96,0.00,,,0.00,,2013-08-30 09:53:00,
2013-08-30 06:13:00,61.0,60.0,30.22,ENE,58,0.0,0.0,96,0.00,,,0.00,,2013-08-30 10:13:00,
2013-08-30 06:23:00,61.0,60.0,30.22,ENE,58,0.0,0.0,96,0.00,,,0.00,,2013-08-30 10:23:00,
2013-08-30 06:43:00,61.0,60.0,30.23,ENE,58,0.0,0.0,96,0.00,,,0.00,,2013-08-30 10:43:00,
2013-08-30 06:53:00,61.0,60.0,30.23,ENE,58,0.0,0.0,96,0.00,,,0.00,,2013-08-30 10:53:00,
2013-08-30 07:12:00,61.0,60.0,30.22,ENE,58,0.0,0.0,96,0.00,,,0.00,,2013-08-30 11:12:00,
2013-08-30 07:22:00,60.0,59.0,30.22,North,6,0.0,1.0,96,0.00,,,0.00,,2013-08-30 11:22:00,
2013-08-30 07:42:00,60.0,59.0,30.22,ENE,75,0.0,1.0,96,0.00,,,0.00,,2013-08-30 11:42:00,
2013-08-30 07:52:00,61.0,60.0,30.22,North,9,0.0,0.0,96,0.00,,,0.00,,2013-08-30 11:52:00,
2013-08-30 08:12:00,61.0,60.0,30.22,East,96,0.0,2.0,96,0.00,,,0.00,,2013-08-30 12:12:00,
2013-08-30 08:21:00,62.0,61.0,30.22,East,83,0.0,1.0,95,0.00,,,0.00,,2013-08-30 12:21:00,
2013-08-30 08:42:00,62.0,60.0,30.22,SSW,210,0.0,1.0,94,0.00,,,0.00,,2013-08-30 12:42:00,
2013-08-30 08:52:00,62.0,60.0,30.22,SW,229,0.0,1.0,93,0.00,,,0.00,,2013-08-30 12:52:00,
2013-08-30 09:11:00,63.0,61.0,30.22,SW,229,0.0,0.0,94,0.00,,,0.00,,2013-08-30 13:11:00,
2013-08-30 09:22:00,63.0,61.0,30.22,SW,228,0.0,1.0,93,0.00,,,0.00,,2013-08-30 13:22:00,
2013-08-30 09:52:00,64.0,62.0,30.21,WNW,299,0.0,1.0,92,0.00,,,0.00,,2013-08-30 13:52:00,
2013-08-30 10:11:00,65.0,62.0,30.21,ENE,69,0.0,1.0,91,0.00,,,0.00,,2013-08-30 14:11:00,
2013-08-30 10:22:00,66.0,63.0,30.20,NE,46,0.0,1.0,90,0.00,,,0.00,,2013-08-30 14:22:00,
2013-08-30 10:42:00,67.0,64.0,30.20,NW,305,0.0,2.0,89,0.00,,,0.00,,2013-08-30 14:42:00,
2013-08-30 10:52:00,68.0,65.0,30.19,WNW,297,0.0,2.0,89,0.00,,,0.00,,2013-08-30 14:52:00,
2013-08-30 11:11:00,69.0,65.0,30.18,SW,217,1.0,3.0,86,0.00,,,0.00,,2013-08-30 15:11:00,
2013-08-30 11:22:00,71.0,65.0,30.18,NE,49,0.0,2.0,82,0.00,,,0.00,,2013-08-30 15:22:00,
2013-08-30 11:43:00,73.0,68.0,30.18,West,269,1.0,2.0,83,0.00,,,0.00,,2013-08-30 15:43:00,
2013-08-30 11:54:00,74.0,67.0,30.17,West,266,1.0,2.0,78,0.00,,,0.00,,2013-08-30 15:54:00,
2013-08-30 12:13:00,74.0,67.0,30.17,WSW,253,0.0,2.0,78,0.00,,,0.00,,2013-08-30 16:13:00,
2013-08-30 12:25:00,75.0,67.0,30.16,WSW,248,0.0,2.0,77,0.00,,,0.00,,2013-08-30 16:25:00,
2013-08-30 12:43:00,76.0,68.0,30.15,WNW,291,1.0,3.0,76,0.00,,,0.00,,2013-08-30 16:43:00,
2013-08-30 12:53:00,78.0,69.0,30.14,West,259,0.0,2.0,74,0.00,,,0.00,,2013-08-30 16:53:00,
2013-08-30 13:13:00,78.0,69.0,30.13,WSW,240,1.0,3.0,73,0.00,,,0.00,,2013-08-30 17:13:00,
2013-08-30 13:23:00,79.0,69.0,30.12,WSW,240,1.0,2.0,72,0.00,,,0.00,,2013-08-30 17:23:00,
2013-08-30 13:53:00,81.0,69.0,30.11,West,266,1.0,2.0,67,0.00,,,0.00,,2013-08-30 17:53:00,
2013-08-30 14:12:00,81.0,69.0,30.11,West,271,1.0,3.0,67,0.00,,,0.00,,2013-08-30 18:12:00,
2013-08-30 14:22:00,82.0,69.0,30.10,WSW,256,1.0,2.0,64,0.00,,,0.00,,2013-08-30 18:22:00,
2013-08-30 14:52:00,82.0,70.0,30.09,West,278,1.0,2.0,68,0.00,,,0.00,,2013-08-30 18:52:00,
2013-08-30 15:12:00,82.0,70.0,30.09,NE,51,0.0,2.0,67,0.00,,,0.00,,2013-08-30 19:12:00,
2013-08-30 15:22:00,82.0,71.0,30.08,WSW,257,0.0,2.0,69,0.00,,,0.00,,2013-08-30 19:22:00,
2013-08-30 15:53:00,83.0,70.0,30.07,WNW,285,0.0,3.0,66,0.00,,,0.00,,2013-08-30 19:53:00,
2013-08-30 16:12:00,82.0,69.0,30.07,WSW,246,0.0,1.0,64,0.00,,,0.00,,2013-08-30 20:12:00,
2013-08-30 16:22:00,81.0,70.0,30.07,West,269,0.0,2.0,69,0.00,,,0.00,,2013-08-30 20:22:00,
2013-08-30 16:52:00,81.0,69.0,30.06,ENE,72,0.0,1.0,68,0.00,,,0.00,,2013-08-30 20:52:00,
2013-08-30 17:12:00,81.0,69.0,30.06,ENE,75,0.0,1.0,67,0.00,,,0.00,,2013-08-30 21:12:00,
2013-08-30 17:22:00,81.0,69.0,30.06,West,271,1.0,3.0,68,0.00,,,0.00,,2013-08-30 21:22:00,
2013-08-30 17:55:00,80.0,70.0,30.05,NE,47,0.0,1.0,71,0.00,,,0.00,,2013-08-30 21:55:00,
2013-08-30 18:13:00,80.0,70.0,30.05,East,94,0.0,1.0,71,0.00,,,0.00,,2013-08-30 22:13:00,
2013-08-30 18:24:00,79.0,69.0,30.05,NE,52,0.0,2.0,71,0.00,,,0.00,,2013-08-30 22:24:00,
2013-08-30 18:54:00,78.0,69.0,30.04,ESE,103,0.0,0.0,73,0.00,,,0.00,,2013-08-30 22:54:00,
2013-08-30 19:12:00,78.0,69.0,30.04,ESE,103,0.0,0.0,74,0.00,,,0.00,,2013-08-30 23:12:00,
2013-08-30 19:22:00,77.0,69.0,30.05,ESE,103,0.0,0.0,76,0.00,,,0.00,,2013-08-30 23:22:00,
2013-08-30 19:53:00,76.0,69.0,30.05,ENE,78,0.0,1.0,80,0.00,,,0.00,,2013-08-30 23:53:00,
2013-08-30 20:11:00,75.0,68.0,30.06,ENE,76,0.0,0.0,80,0.00,,,0.00,,2013-08-31 00:11:00,
2013-08-30 20:22:00,75.0,68.0,30.05,ENE,61,0.0,0.0,80,0.00,,,0.00,,2013-08-31 00:22:00,
2013-08-30 20:42:00,75.0,68.0,30.05,ENE,61,0.0,0.0,80,0.00,,,0.00,,2013-08-31 00:42:00,
2013-08-30 20:52:00,74.0,68.0,30.05,ENE,61,0.0,0.0,81,0.00,,,0.00,,2013-08-31 00:52:00,
2013-08-30 21:11:00,74.0,68.0,30.06,ENE,61,0.0,0.0,82,0.00,,,0.00,,2013-08-31 01:11:00,
2013-08-30 21:22:00,74.0,68.0,30.06,ENE,61,0.0,0.0,83,0.00,,,0.00,,2013-08-31 01:22:00,
2013-08-30 21:42:00,73.0,68.0,30.06,ENE,61,0.0,0.0,84,0.00,,,0.00,,2013-08-31 01:42:00,
2013-08-30 21:52:00,73.0,68.0,30.05,ENE,61,0.0,0.0,84,0.00,,,0.00,,2013-08-31 01:52:00,
2013-08-30 22:12:00,73.0,68.0,30.05,ENE,61,0.0,0.0,84,0.00,,,0.00,,2013-08-31 02:12:00,
2013-08-30 22:22:00,73.0,68.0,30.05,ENE,61,0.0,0.0,85,0.00,,,0.00,,2013-08-31 02:22:00,
2013-08-30 22:42:00,72.0,68.0,30.05,ENE,60,0.0,0.0,86,0.00,,,0.00,,2013-08-31 02:42:00,
2013-08-30 22:52:00,72.0,68.0,30.05,ENE,60,0.0,0.0,87,0.00,,,0.00,,2013-08-31 02:52:00,
2013-08-30 23:12:00,71.0,67.0,30.05,ENE,63,0.0,1.0,87,0.00,,,0.00,,2013-08-31 03:12:00,
2013-08-30 23:22:00,71.0,67.0,30.05,ENE,63,0.0,0.0,88,0.00,,,0.00,,2013-08-31 03:22:00,
2013-08-30 23:54:00,71.0,68.0,30.05,ENE,63,0.0,0.0,89,0.00,,,0.00,,2013-08-31 03:54:00,